1497999601.19,33532,23.56,74288.5,7.17,6.13,6.13,0,*78
1497999602.42,33533,23.56,74284.5,7.17,6.13,6.17,0,*7D
1497999603.65,33534,23.56,74290.8,7.17,6.17,6.13,0,*7A
1497999604.85,33535,23.56,74288.5,7.17,6.13,6.07,0,*7A
1497999606.08,33536,23.56,74288.0,7.17,6.13,6.13,0,*7C
1497999607.27,33537,23.56,74288.3,7.17,6.07,6.13,0,*78
1497999608.45,33538,23.56,74292.5,7.17,6.07,6.07,0,*72
1497999609.67,33539,23.56,74292.0,7.17,6.13,6.13,0,*73
1497999610.92,33540,23.56,74292.0,7.19,6.13,6.13,0,*73
1497999612.15,33541,23.56,74288.0,7.17,6.13,6.13,0,*7C
1497999613.4,33542,23.56,74288.3,7.19,6.13,6.13,0,*71
1497999614.65,33543,23.56,74288.3,7.19,6.13,6.13,0,*70
1497999615.87,33544,23.56,74290.0,7.19,6.07,6.13,0,*72
1497999617.12,33545,23.56,74286.8,7.19,6.13,6.13,0,*76
1497999618.3,33546,23.56,74288.8,7.21,5.99,6.11,0,*7D
1497999619.48,33547,23.56,74288.5,7.21,5.99,6.11,0,*7C
1497999620.68,33548,23.56,74288.5,7.19,6.07,6.07,0,*7B
1497999621.87,33549,23.56,74284.5,7.19,6.07,6.07,0,*7A
1497999623.08,33550,23.56,74286.3,7.19,6.03,6.07,0,*76
1497999624.28,33551,23.56,74284.5,7.19,6.07,6.07,0,*73
1497999625.5,33552,23.56,74290.3,7.19,6.13,6.07,0,*75
1497999626.75,33553,23.56,74282.3,7.19,6.13,6.13,0,*71
1497999628.0,33554,23.56,74286.3,7.19,6.13,6.17,0,*72
1497999629.19,33555,23.56,74284.5,7.21,6.11,6.21,0,*7F
1497999630.41,33556,23.56,74286.5,7.21,6.17,6.17,0,*7F
1497999631.61,33557,23.56,74288.3,7.19,6.07,6.07,0,*75
1497999632.83,33558,23.56,74286.8,7.19,6.07,6.13,0,*7F
1497999634.01,33559,23.56,74282.8,7.21,6.11,6.11,0,*70
1497999635.2,33560,23.56,74282.0,7.21,6.11,6.11,0,*7A
1497999636.43,33561,23.56,74282.0,7.19,6.03,6.13,0,*71
1497999637.63,33562,23.56,74286.0,7.21,6.11,6.17,0,*7E
1497999638.83,33563,23.56,74282.5,7.19,5.95,6.07,0,*7A
1497999640.03,33564,23.56,74284.5,7.19,5.95,6.07,0,*7D
1497999641.21,33565,23.56,74282.8,7.21,6.07,5.99,0,*7B
1497999642.43,33566,23.56,74280.3,7.19,6.03,6.03,0,*77
1497999643.63,33567,23.56,74280.5,7.25,6.03,6.13,0,*78
1497999644.84,33568,23.56,74278.5,7.19,5.95,6.03,0,*75
1497999646.07,33569,23.56,74276.5,7.19,5.93,5.95,0,*7E
1497999647.28,33570,23.56,74280.3,7.21,5.85,5.99,0,*76
1497999648.51,33571,23.56,74276.0,7.19,5.93,6.03,0,*7B
1497999649.74,33572,23.56,74278.5,7.19,5.93,5.95,0,*74
1497999650.96,33573,23.56,74282.5,7.19,5.85,6.07,0,*7A
1497999652.17,33574,23.56,74280.3,7.21,5.89,5.95,0,*72
1497999653.42,33575,23.56,74280.8,7.19,5.85,5.93,0,*72
1497999654.67,33576,23.56,74280.3,7.19,5.85,5.93,0,*71
1497999655.9,33577,23.56,74282.0,7.19,5.93,5.95,0,*71
1497999657.09,33578,23.56,74280.3,7.21,5.95,5.99,0,*7F
1497999658.34,33579,23.56,74280.8,7.19,5.85,5.93,0,*7E
1497999659.55,33580,23.56,74286.5,7.21,5.93,5.99,0,*7E
1497999660.78,33581,23.56,74284.5,7.19,5.93,6.03,0,*74
1497999662.0,33582,23.56,74286.5,7.19,6.03,6.03,0,*7D
1497999663.2,33583,23.56,74286.5,7.19,5.95,6.03,0,*70
1497999664.41,33584,23.56,74286.3,7.19,5.95,6.03,0,*77
1497999665.62,33585,23.56,74286.3,7.19,5.95,6.03,0,*76
1497999666.81,33586,23.56,74286.0,7.17,6.03,6.03,0,*77
1497999667.99,33587,23.56,74284.3,7.17,5.95,6.03,0,*7A
1497999669.2,33588,23.56,74288.5,7.19,6.03,6.07,0,*73
1497999670.4,33589,23.56,74290.3,7.19,5.95,5.95,0,*76
1497999671.61,33590,23.56,74286.3,7.19,5.95,6.03,0,*72
1497999672.84,33591,23.56,74290.0,7.19,5.93,6.03,0,*75
1497999674.07,33592,23.56,74288.5,7.19,5.93,5.95,0,*7A
1497999675.31,33593,23.56,74288.3,7.19,5.93,6.03,0,*77
1497999676.53,33594,23.56,74284.0,7.19,5.85,5.95,0,*7B
1497999677.77,33595,23.56,74286.8,7.19,5.93,6.03,0,*71
1497999679.0,33596,23.56,74286.3,7.19,6.03,6.13,0,*79
1497999680.21,33597,23.56,74282.8,7.17,6.03,6.17,0,*72
1497999681.38,33598,23.56,74286.5,7.17,5.95,6.07,0,*70
1497999682.56,33599,23.56,74288.5,7.17,6.07,6.07,0,*79
1497999683.74,33600,23.56,74290.5,7.17,6.03,6.07,0,*7E
1497999684.93,33601,23.56,74286.3,7.17,6.03,6.03,0,*7B
1497999686.13,33602,23.56,74288.3,7.19,5.95,5.95,0,*76
1497999687.36,33603,23.56,74286.5,7.19,5.93,5.95,0,*71
1497999688.59,33604,23.56,74286.5,7.17,5.85,5.85,0,*7E
1497999689.81,33605,23.56,74286.3,7.17,5.85,5.93,0,*78
1497999691.01,33606,23.56,74284.5,7.17,6.07,6.13,0,*79
1497999692.2,33607,23.56,74286.0,7.17,6.03,6.11,0,*7E
1497999693.42,33608,23.56,74286.8,7.17,6.13,6.13,0,*72
1497999694.6,33609,23.56,74290.5,7.17,6.07,6.07,0,*73
1497999695.82,33610,23.56,74288.0,7.17,5.85,5.85,0,*7B
1497999697.08,33611,23.56,74288.5,7.15,5.81,5.81,0,*78
1497999698.33,33612,23.56,74284.5,7.15,5.89,5.89,0,*7B
1497999699.57,33613,23.56,74286.5,7.15,5.99,5.93,0,*70
1497999700.81,33614,23.56,74286.8,7.15,5.93,5.99,0,*77
1497999701.98,33615,23.56,74284.3,7.17,6.07,6.07,0,*7E
1497999703.19,33616,23.56,74280.8,7.15,5.99,5.99,0,*7F
1497999704.42,33617,23.56,74280.5,7.17,6.13,6.13,0,*7C
1497999705.65,33618,23.56,74286.0,7.15,6.11,6.13,0,*73
1497999706.9,33619,23.56,74286.8,7.15,6.13,6.13,0,*70
1497999708.13,33620,23.56,74284.8,7.15,6.21,6.13,0,*7B
1497999709.34,33621,23.56,74284.8,7.17,6.25,6.17,0,*78
1497999710.58,33622,23.56,74280.8,7.15,6.21,6.13,0,*79
1497999711.81,33623,23.56,74284.8,7.15,6.13,6.11,0,*7B
1497999713.04,33624,23.56,74286.0,7.17,6.13,6.17,0,*78
1497999714.24,33625,23.56,74284.8,7.17,6.17,6.07,0,*7C
1497999715.5,33626,23.56,74284.8,7.15,6.13,6.13,0,*7C
1497999716.7,33627,23.56,74282.0,7.15,6.11,6.11,0,*7D
1497999717.94,33628,23.56,74280.5,7.15,6.13,6.11,0,*70
1497999719.13,33629,23.56,74278.0,7.17,6.03,6.03,0,*71
1497999720.35,33630,23.56,74280.5,7.17,6.17,6.17,0,*79
1497999721.61,33631,23.56,74280.0,7.15,6.13,6.13,0,*7A
1497999722.81,33632,23.56,74280.5,7.17,6.17,6.25,0,*7A
1497999724.02,33633,23.56,74282.8,7.15,6.21,6.21,0,*78
1497999725.23,33634,23.56,74278.8,7.17,6.25,6.17,0,*7C
1497999726.46,33635,23.56,74276.3,7.15,6.11,6.13,0,*7C
1497999727.69,33636,23.56,74278.5,7.17,6.13,6.13,0,*7F
1497999728.87,33637,23.56,74280.0,7.17,6.11,6.11,0,*7E
1497999730.04,33638,23.56,74278.8,7.17,6.07,6.07,0,*71
1497999731.27,33639,23.56,74272.3,7.17,6.13,6.13,0,*70
1497999732.47,33640,23.56,74274.0,7.17,6.13,6.07,0,*7B
1497999733.69,33641,23.56,74272.5,7.15,6.03,6.03,0,*7D
1497999734.86,33642,23.56,74276.3,7.17,6.07,6.07,0,*7C
1497999736.09,33643,23.56,74272.8,7.17,6.13,6.13,0,*7D
1497999737.3,33644,23.56,74276.8,7.15,6.03,6.11,0,*7B
1497999738.5,33645,23.56,74274.3,7.17,6.13,6.07,0,*7E
1497999739.71,33646,23.56,74274.0,7.17,6.13,6.07,0,*7D
1497999740.91,33647,23.56,74274.8,7.17,6.13,6.07,0,*7C
1497999742.12,33648,23.56,74278.3,7.15,6.11,6.03,0,*77
1497999743.33,33649,23.56,74276.8,7.15,6.03,6.11,0,*76
1497999744.55,33650,23.56,74276.5,7.15,6.03,6.03,0,*7D
1497999745.73,33651,23.56,74274.0,7.17,6.11,6.11,0,*7E
1497999746.91,33652,23.56,74274.8,7.17,6.07,6.07,0,*7D
1497999748.13,33653,23.56,74276.3,7.17,6.13,6.13,0,*7C
1497999749.31,33654,23.56,74278.0,7.17,6.07,6.07,0,*7B
1497999750.52,33655,23.56,74276.5,7.15,6.11,6.03,0,*7B
1497999751.71,33656,23.56,74276.8,7.17,6.07,6.13,0,*7C
1497999752.88,33657,23.56,74276.3,7.17,6.07,6.07,0,*78
1497999754.08,33658,23.56,74276.0,7.17,6.07,6.13,0,*72
1497999755.25,33659,23.5,74276.5,7.17,6.07,6.07,0,*76
1497999756.48,33660,23.56,74280.8,7.17,6.13,6.13,0,*7C
1497999757.69,33661,23.56,74280.5,7.15,6.11,6.11,0,*7F
1497999758.89,33662,23.56,74284.5,7.17,6.13,6.07,0,*7B
1497999760.11,33663,23.56,74282.5,7.15,6.03,6.03,0,*7D
1497999761.28,33664,23.56,74282.5,7.17,6.07,6.07,0,*78
1497999762.51,33665,23.56,74284.5,7.17,6.13,6.13,0,*79
1497999763.74,33666,23.56,74280.3,7.17,6.13,6.13,0,*7A
1497999764.94,33667,23.56,74282.0,7.17,6.13,6.25,0,*7E
1497999766.14,33668,23.56,74278.3,7.17,6.17,6.25,0,*75
1497999767.35,33669,23.56,74276.5,7.17,6.17,6.25,0,*74
1497999768.55,33670,23.56,74278.0,7.17,6.13,6.25,0,*78
1497999769.75,33671,23.56,74280.3,7.17,6.17,6.25,0,*7D
1497999770.98,33672,23.56,74278.8,7.17,6.13,6.13,0,*7F
1497999772.15,33673,23.56,74276.3,7.17,6.07,6.07,0,*7E
1497999773.34,33674,23.56,74276.5,7.17,6.03,6.03,0,*79
1497999774.54,33675,23.56,74276.8,7.17,6.07,6.13,0,*7D
1497999775.72,33676,23.56,74274.8,7.17,6.07,6.03,0,*7F
1497999776.94,33677,23.56,74272.5,7.15,6.03,6.03,0,*78
1497999778.15,33678,23.56,74272.5,7.19,6.03,5.95,0,*77
1497999779.35,33679,23.56,74274.3,7.17,6.03,6.13,0,*75
1497999780.56,33680,23.56,74274.0,7.15,6.11,6.11,0,*70
1497999781.74,33681,23.56,74276.5,7.17,6.07,6.07,0,*73
1497999782.92,33682,23.56,74278.5,7.17,6.03,6.07,0,*74
1497999784.11,33683,23.56,74276.3,7.17,6.07,6.13,0,*74
1497999785.31,33684,23.56,74278.5,7.17,6.07,6.13,0,*73
1497999786.54,33685,23.5,74276.0,7.17,6.13,6.17,0,*73
1497999787.72,33686,23.56,74278.0,7.17,5.95,6.03,0,*78
1497999788.9,33687,23.56,74278.5,7.17,6.07,6.03,0,*71
1497999790.1,33688,23.56,74276.5,7.17,6.07,6.13,0,*7F
1497999791.27,33689,23.56,74276.8,7.17,6.07,6.07,0,*7B
1497999792.48,33690,23.56,74278.3,7.17,6.03,6.13,0,*72
1497999793.69,33691,23.56,74280.5,7.19,6.03,6.03,0,*7C
1497999794.9,33692,23.56,74282.0,7.19,5.95,6.03,0,*73
1497999796.1,33693,23.5,74278.8,7.19,5.95,5.95,0,*7E
1497999797.31,33694,23.56,74278.5,7.19,5.95,6.03,0,*75
1497999798.51,33695,23.56,74278.0,7.19,5.95,5.95,0,*78
1497999799.74,33696,23.56,74282.3,7.19,6.03,6.13,0,*7A
1497999800.94,33697,23.56,74282.5,7.19,6.07,6.07,0,*7A
1497999802.14,33698,23.56,74280.5,7.17,6.13,6.07,0,*7E
1497999803.34,33699,23.56,74280.0,7.17,6.07,6.13,0,*7F
1497999804.57,33700,23.56,74284.0,7.17,6.13,6.13,0,*7B
1497999805.75,33701,23.56,74284.3,7.17,5.95,5.95,0,*7A
1497999806.93,33702,23.56,74280.0,7.17,6.03,6.07,0,*7D
1497999808.14,33703,23.56,74282.5,7.17,5.93,5.95,0,*7E
1497999809.37,33704,23.56,74282.5,7.17,5.93,5.85,0,*78
1497999810.57,33705,23.56,74280.3,7.17,5.93,5.95,0,*78
1497999811.83,33706,23.56,74280.8,7.15,5.89,5.89,0,*7F
1497999813.07,33707,23.56,74282.0,7.15,5.93,5.99,0,*74
1497999814.28,33708,23.56,74280.8,7.19,6.03,6.03,0,*7D
1497999815.46,33709,23.56,74280.3,7.21,5.95,6.07,0,*7F
1497999816.65,33710,23.5,74276.0,7.17,6.03,6.03,0,*7A
1497999817.84,33711,23.56,74278.3,7.17,6.03,5.95,0,*77
1497999819.03,33712,23.56,74278.5,7.17,6.03,5.95,0,*74
1497999820.24,33713,23.56,74278.5,7.17,5.93,5.95,0,*7F
1497999821.44,33714,23.56,74278.3,7.17,5.93,5.95,0,*78
1497999822.67,33715,23.56,74276.5,7.17,5.93,5.93,0,*7F
1497999823.9,33716,23.56,74280.0,7.17,5.93,5.93,0,*7C
1497999825.16,33717,23.56,74282.3,7.19,5.93,5.93,0,*73
1497999826.35,33718,23.56,74276.8,7.21,5.99,5.99,0,*77
1497999827.58,33719,23.5,74272.5,7.15,5.99,5.93,0,*7B
1497999828.77,33720,23.56,74278.8,7.17,6.03,6.03,0,*79
1497999829.95,33721,23.56,74274.8,7.17,5.95,5.95,0,*78
1497999831.15,33722,23.56,74274.8,7.19,5.95,5.95,0,*75
1497999832.36,33723,23.56,74276.5,7.15,5.99,5.99,0,*78
1497999833.59,33724,23.56,74274.0,7.17,6.13,6.13,0,*7D
1497999834.79,33725,23.56,74274.0,7.17,6.13,6.07,0,*79
1497999836.0,33726,23.56,74272.3,7.15,5.99,6.11,0,*7E
1497999837.21,33727,23.56,74274.8,7.15,6.11,6.11,0,*7C
1497999838.41,33728,23.56,74272.3,7.17,6.13,6.07,0,*74
1497999839.59,33729,23.56,74272.5,7.17,6.03,6.07,0,*74
1497999840.77,33730,23.56,74274.8,7.17,5.95,5.95,0,*78
1497999841.96,33731,23.5,74274.0,7.17,5.95,6.03,0,*75
1497999843.19,33732,23.56,74272.0,7.15,5.93,5.95,0,*7E
1497999844.39,33733,23.56,74274.8,7.17,6.03,6.03,0,*7B
1497999845.6,33734,23.5,74272.8,7.15,5.99,5.99,0,*7E
1497999846.79,33735,23.56,74274.3,7.17,6.03,6.03,0,*7D
1497999848.0,33736,23.56,74278.5,7.19,6.03,6.03,0,*70
1497999849.23,33737,23.56,74276.8,7.17,6.13,6.13,0,*7F
1497999850.42,33738,23.56,74280.0,7.17,6.07,6.13,0,*75
1497999851.63,33739,23.56,74276.3,7.15,6.11,6.11,0,*73
1497999852.83,33740,23.56,74278.8,7.17,6.13,6.07,0,*7A
1497999854.03,33741,23.56,74282.5,7.17,6.07,6.13,0,*7B
1497999855.23,33742,23.56,74282.5,7.17,6.07,6.13,0,*78
1497999856.45,33743,23.5,74282.3,7.17,6.13,6.13,0,*7C
1497999857.65,33744,23.56,74280.5,7.17,6.07,6.13,0,*7E
1497999858.85,33745,23.56,74280.8,7.17,6.07,6.17,0,*7B
1497999860.05,33746,23.56,74286.0,7.17,6.07,6.13,0,*7C
1497999861.24,33747,23.56,74284.0,7.17,6.07,6.17,0,*79
1497999862.47,33748,23.56,74286.8,7.15,6.11,6.13,0,*77
1497999863.7,33749,23.5,74284.3,7.17,6.13,6.13,0,*76
1497999864.9,33750,23.56,74286.5,7.17,6.07,6.13,0,*7B
1497999866.1,33751,23.56,74286.5,7.17,6.13,6.25,0,*7A
1497999867.28,33752,23.5,74284.0,7.17,6.07,6.25,0,*7C
1497999868.45,33753,23.56,74288.5,7.17,6.07,6.07,0,*7D
1497999869.64,33754,23.56,74288.8,7.17,6.07,6.13,0,*7F
1497999870.82,33755,23.56,74288.5,7.17,6.07,6.07,0,*7B
1497999872.04,33756,23.56,74294.8,7.17,6.13,6.13,0,*78
1497999873.25,33757,23.56,74292.3,7.17,6.13,6.07,0,*7C
1497999874.43,33758,23.56,74290.3,7.17,6.03,6.07,0,*72
1497999875.61,33759,23.5,74290.3,7.17,6.03,6.07,0,*73
1497999876.79,33760,23.56,74292.3,7.17,6.03,6.07,0,*79
1497999877.98,33761,23.56,74294.5,7.17,6.03,6.07,0,*78
1497999879.19,33762,23.56,74296.0,7.15,5.99,6.03,0,*7D
1497999880.4,33763,23.5,74294.0,7.15,6.11,6.11,0,*7C
1497999881.62,33764,23.56,74296.8,7.17,6.13,6.13,0,*79
1497999882.85,33765,23.56,74298.3,7.17,6.17,6.13,0,*7C
1497999884.03,33766,23.56,74298.5,7.17,6.03,6.07,0,*7F
1497999885.2,33767,23.56,74298.8,7.17,6.07,6.07,0,*7A
1497999886.41,33768,23.5,74298.5,7.17,6.13,6.07,0,*70
1497999887.6,33769,23.56,74302.3,7.19,6.07,6.07,0,*7A
1497999888.84,33770,23.56,74300.3,7.19,6.13,6.03,0,*73
1497999890.04,33771,23.5,74296.8,7.17,6.13,5.95,0,*70
1497999891.25,33772,23.56,74300.0,7.17,6.13,5.95,0,*73
1497999892.48,33773,23.5,74296.3,7.17,6.13,5.93,0,*74
1497999893.73,33774,23.5,74300.8,7.19,6.13,5.85,0,*7A
1497999894.96,33775,23.56,74300.3,7.19,5.95,5.73,0,*7F
1497999896.18,33776,23.5,74300.0,7.17,5.85,5.55,0,*77
1497999897.38,33777,23.56,74302.5,7.15,5.71,5.45,0,*7E
1497999898.59,33778,23.5,74302.5,7.15,5.63,5.41,0,*76
1497999899.78,33779,23.56,74304.0,7.17,5.55,5.45,0,*74
1497999900.99,33780,23.5,74302.0,7.15,5.33,5.29,0,*7A
1497999902.16,33781,23.56,74302.8,7.17,5.23,5.37,0,*77
1497999903.4,33782,23.56,74302.8,7.15,5.05,5.49,0,*7B
1497999904.6,33783,23.5,74296.5,7.17,5.15,5.55,0,*74
1497999905.77,33784,23.56,74294.5,7.17,5.23,5.71,0,*70
1497999906.99,33785,23.56,74294.3,7.19,5.37,5.73,0,*78
1497999908.21,33786,23.5,74288.8,7.19,5.49,5.81,0,*7F
1497999909.41,33787,23.56,74294.0,7.17,5.59,5.73,0,*7C
1497999910.61,33788,23.56,74294.5,7.17,5.55,5.67,0,*7A
1497999911.84,33789,23.56,74290.3,7.15,5.41,5.55,0,*7D
1497999913.01,33790,23.56,74292.8,7.17,5.45,5.71,0,*75
1497999914.2,33791,23.56,74294.3,7.17,5.45,5.73,0,*76
1497999915.4,33792,23.5,74292.3,7.17,5.37,5.73,0,*70
1497999916.6,33793,23.5,74288.0,7.17,5.27,5.67,0,*75
1497999917.78,33794,23.5,74278.0,7.17,5.33,5.71,0,*70
1497999918.99,33795,23.5,74280.0,7.15,5.33,5.67,0,*74
1497999920.19,33796,23.5,74278.8,7.17,5.33,5.81,0,*7D
1497999921.41,33797,23.56,74282.8,7.15,5.41,5.77,0,*72
1497999922.62,33798,23.5,74278.3,7.15,5.33,5.67,0,*79
1497999923.81,33799,23.5,74272.0,7.17,5.45,5.73,0,*7E
1497999925.01,33800,23.56,74274.3,7.17,5.49,5.73,0,*7D
1497999926.18,33801,23.56,74280.5,7.17,5.49,5.71,0,*7E
1497999927.41,33802,23.56,74280.8,7.15,5.67,5.77,0,*75
1497999928.61,33803,23.5,74284.8,7.17,5.71,5.85,0,*7C
1497999929.86,33804,23.56,74290.3,7.15,5.77,5.89,0,*73
1497999931.1,33805,23.56,74288.3,7.15,5.77,5.89,0,*72
1497999932.35,33806,23.5,74286.0,7.15,5.77,5.81,0,*79
1497999933.58,33807,23.5,74286.8,7.17,5.81,5.85,0,*77
1497999934.83,33808,23.5,74286.8,7.15,5.77,5.89,0,*7F
1497999936.08,33809,23.56,74288.3,7.15,5.81,5.93,0,*7C
1497999937.32,33810,23.5,74280.3,7.15,5.89,5.99,0,*76
1497999938.53,33811,23.56,74280.8,7.15,5.99,5.99,0,*76
1497999939.71,33812,23.5,74278.8,7.13,5.99,6.03,0,*73
1497999940.95,33813,23.5,74278.3,7.15,5.93,6.03,0,*7E
1497999942.16,33814,23.5,74276.8,7.15,5.99,6.03,0,*73
1497999943.37,33815,23.56,74276.3,7.17,6.03,6.13,0,*71
1497999944.58,33816,23.56,74278.3,7.15,6.11,6.03,0,*72
1497999945.8,33817,23.5,74276.8,7.15,6.03,6.11,0,*73
1497999947.02,33818,23.56,74278.5,7.15,6.03,6.03,0,*7F
1497999948.23,33819,23.5,74274.8,7.15,5.99,5.99,0,*7E
1497999949.44,33820,23.5,74272.8,7.15,5.99,5.99,0,*74
1497999950.65,33821,23.5,74272.5,7.15,5.99,6.03,0,*75
1497999951.86,33822,23.5,74272.5,7.15,5.99,6.03,0,*76
1497999953.08,33823,23.5,74274.0,7.15,6.03,6.03,0,*77
1497999954.27,33824,23.5,74272.3,7.17,6.03,6.07,0,*76
1497999955.48,33825,23.56,74278.8,7.19,6.03,6.03,0,*7D
1497999956.66,33826,23.5,74272.3,7.17,5.95,6.03,0,*7C
1497999957.9,33827,23.56,74278.8,7.15,5.93,5.99,0,*79
1497999959.12,33828,23.56,74278.3,7.15,6.03,5.99,0,*7C
1497999960.34,33829,23.5,74276.5,7.15,6.03,5.99,0,*7D
1497999961.54,33830,23.56,74278.5,7.19,6.07,5.95,0,*71
1497999962.75,33831,23.5,74276.5,7.15,5.99,5.99,0,*74
1497999963.93,33832,23.5,74278.3,7.17,5.95,5.95,0,*75
1497999965.16,33833,23.5,74276.3,7.15,5.99,5.93,0,*7C
1497999966.37,33834,23.5,74280.3,7.17,6.03,5.93,0,*79
1497999967.63,33835,23.5,74282.3,7.15,5.93,5.93,0,*70
1497999968.82,33836,23.5,74280.0,7.17,6.03,5.95,0,*7D
1497999970.05,33837,23.5,74280.5,7.15,5.99,5.93,0,*78
1497999971.28,33838,23.5,74284.0,7.15,5.99,5.93,0,*77
1497999972.49,33839,23.5,74284.8,7.17,5.95,5.93,0,*78
1497999973.72,33840,23.5,74282.3,7.15,5.99,5.93,0,*78
1497999974.96,33841,23.5,74286.0,7.15,5.93,5.99,0,*79
1497999976.2,33842,23.5,74280.8,7.15,5.93,5.99,0,*7A
1497999977.38,33843,23.5,74284.3,7.17,5.95,5.95,0,*73
1497999978.56,33844,23.56,74290.0,7.17,6.03,5.95,0,*78
1497999979.78,33845,23.56,74284.5,7.15,5.99,5.99,0,*77
1497999981.01,33846,23.56,74290.5,7.15,5.99,5.93,0,*7E
1497999982.21,33847,23.5,74288.8,7.17,5.95,5.93,0,*71
1497999983.47,33848,23.5,74288.3,7.15,5.93,5.89,0,*71
1497999984.7,33849,23.5,74286.3,7.15,5.99,5.93,0,*71
1497999985.89,33850,23.5,74286.8,7.17,6.03,5.95,0,*7D
1497999987.15,33851,23.5,74288.3,7.15,5.93,5.93,0,*72
1497999988.41,33852,23.5,74286.5,7.15,5.93,5.93,0,*71
1497999989.67,33853,23.5,74286.5,7.15,5.89,5.93,0,*7B
1497999990.92,33854,23.5,74286.3,7.15,5.89,5.81,0,*7F
1497999992.18,33855,23.5,74286.3,7.15,5.81,5.89,0,*7E
1497999993.43,33856,23.5,74286.5,7.15,5.81,5.89,0,*7D
1497999994.66,33857,23.5,74286.5,7.17,5.85,5.93,0,*71
1497999995.92,33858,23.5,74286.3,7.15,5.89,5.93,0,*70
1497999997.15,33859,23.5,74284.0,7.17,5.89,5.93,0,*73
1497999998.4,33860,23.5,74282.3,7.15,5.81,5.81,0,*70
1497999999.65,33861,23.5,74278.0,7.15,5.81,5.77,0,*78
1498000000.91,33862,23.5,74278.8,7.15,5.89,5.81,0,*7A
1498000002.14,33863,23.5,74276.8,7.17,5.93,5.93,0,*71
1498000003.4,33864,23.5,74274.3,7.15,5.81,5.81,0,*74
1498000004.62,33865,23.56,74276.8,7.17,5.85,5.93,0,*70
1498000005.85,33866,23.5,74276.3,7.17,5.85,5.85,0,*74
1498000007.07,33867,23.5,74278.0,7.17,5.81,5.85,0,*71
1498000008.32,33868,23.5,74276.3,7.15,5.77,5.89,0,*79
1498000009.57,33869,23.5,74276.0,7.15,5.81,5.89,0,*71
1498000010.8,33870,23.5,74276.3,7.17,5.85,5.93,0,*74
1498000012.05,33871,23.5,74278.8,7.15,5.81,5.89,0,*78
1498000013.31,33872,23.56,74280.0,7.15,5.81,5.89,0,*7B
1498000014.54,33873,23.5,74276.5,7.15,5.81,6.03,0,*7B
1498000015.78,33874,23.5,74276.0,7.15,5.81,5.99,0,*7C
1498000017.01,33875,23.5,74276.3,7.15,5.81,5.99,0,*7D
1498000018.25,33876,23.5,74276.5,7.15,5.89,5.99,0,*76
1498000019.45,33877,23.5,74278.8,7.13,5.81,5.99,0,*79
1498000020.69,33878,23.5,74280.8,7.15,5.89,5.99,0,*78
1498000021.93,33879,23.5,74282.0,7.15,5.93,5.99,0,*72
1498000023.17,33880,23.5,74280.5,7.15,5.93,5.99,0,*74
1498000024.35,33881,23.5,74282.8,7.17,5.95,6.03,0,*71
1498000025.59,33882,23.5,74282.0,7.15,5.89,5.99,0,*7D
1498000026.83,33883,23.5,74280.3,7.15,5.93,5.99,0,*77
1498000028.04,33884,23.5,74280.0,7.13,5.93,6.03,0,*76
1498000029.25,33885,23.5,74280.8,7.15,6.03,6.11,0,*78
1498000030.47,33886,23.5,74280.5,7.15,6.03,6.11,0,*7B
1498000031.68,33887,23.5,74282.8,7.15,5.99,6.03,0,*79
1498000032.9,33888,23.5,74284.3,7.15,6.03,6.03,0,*76
1498000034.12,33889,23.5,74286.5,7.15,6.03,6.03,0,*77
1498000035.32,33890,23.5,74286.5,7.17,6.07,6.17,0,*7C
1498000036.55,33891,23.5,74282.5,7.15,6.13,6.11,0,*7C
1498000037.75,33892,23.5,74280.8,7.17,6.07,6.13,0,*7A
1498000038.98,33893,23.5,74280.8,7.15,6.03,6.13,0,*7D
1498000040.21,33894,23.5,74280.5,7.15,6.21,6.13,0,*7A
1498000041.45,33895,23.5,74286.0,7.15,6.13,6.21,0,*7B
1498000042.67,33896,23.5,74284.0,7.15,6.03,6.03,0,*79
1498000043.89,33897,23.5,74284.8,7.15,6.03,6.03,0,*78
1498000045.08,33898,23.5,74282.5,7.17,6.03,6.03,0,*75
1498000046.29,33899,23.5,74282.5,7.15,6.11,6.03,0,*75
1498000047.5,33900,23.5,74284.0,7.15,6.03,6.11,0,*74
1498000048.71,33901,23.5,74280.5,7.15,6.11,6.03,0,*75
1498000049.9,33902,23.5,74278.8,7.17,6.11,6.03,0,*74
1498000051.14,33903,23.5,74278.8,7.15,6.13,6.03,0,*75
1498000052.35,33904,23.5,74280.0,7.15,5.99,5.99,0,*73
1498000053.61,33905,23.5,74280.3,7.15,5.93,5.93,0,*72
1498000054.86,33906,23.5,74280.8,7.15,5.89,5.93,0,*7A
1498000056.08,33907,23.5,74280.0,7.15,5.99,5.99,0,*70
1498000057.29,33908,23.5,74280.8,7.15,5.99,6.03,0,*7F
1498000058.52,33909,23.5,74280.0,7.15,6.11,6.13,0,*7C
1498000059.77,33910,23.5,74280.8,7.15,6.13,6.13,0,*76
1498000060.98,33911,23.5,74282.3,7.15,6.11,6.03,0,*74
1498000062.16,33912,23.5,74282.3,7.17,6.07,6.07,0,*76
1498000063.37,33913,23.5,74284.0,7.15,5.99,5.99,0,*75
1498000064.59,33914,23.5,74282.5,7.15,6.03,6.03,0,*72
1498000065.8,33915,23.5,74282.3,7.15,6.11,6.03,0,*70
1498000067.01,33916,23.5,74280.0,7.15,6.11,6.11,0,*70
1498000068.24,33917,23.5,74280.5,7.15,6.21,6.13,0,*70
1498000069.5,33918,23.5,74280.5,7.15,6.13,6.13,0,*7E
1498000070.75,33919,23.5,74284.0,7.15,6.13,6.13,0,*7F
1498000072.0,33920,23.5,74282.3,7.15,6.13,6.13,0,*75
1498000073.26,33921,23.5,74282.0,7.15,6.13,6.13,0,*74
1498000074.49,33922,23.5,74284.0,7.15,6.03,6.13,0,*76
1498000075.75,33923,23.5,74286.3,7.15,6.13,6.13,0,*76
1498000076.96,33924,23.5,74286.5,7.15,6.21,6.21,0,*71
1498000078.22,33925,23.5,74284.8,7.15,6.13,6.13,0,*70
1498000079.43,33926,23.5,74286.0,7.15,6.21,6.21,0,*73
1498000080.66,33927,23.5,74284.5,7.15,6.13,6.21,0,*73
1498000081.87,33928,23.5,74290.0,7.17,6.25,6.17,0,*7E
1498000083.1,33929,23.5,74290.0,7.17,6.17,6.17,0,*7E
1498000084.33,33930,23.5,74288.5,7.15,6.13,6.21,0,*75
1498000085.56,33931,23.5,74290.3,7.15,6.13,6.21,0,*74
1498000086.8,33932,23.5,74290.5,7.15,6.21,6.13,0,*77
1498000087.98,33933,23.5,74286.5,7.17,6.29,6.25,0,*79
1498000089.22,33934,23.5,74288.8,7.15,6.13,6.21,0,*71
1498000090.45,33935,23.5,74288.5,7.15,6.13,6.21,0,*70
1498000091.63,33936,23.5,74290.0,7.17,6.25,6.25,0,*70
1498000092.86,33937,23.5,74288.0,7.17,6.17,6.17,0,*71
1498000094.11,33938,23.5,74288.0,7.15,6.13,6.13,0,*7C
1498000095.34,33939,23.5,74284.5,7.17,6.17,6.13,0,*7B
1498000096.57,33940,23.5,74284.8,7.15,6.13,6.11,0,*71
1498000097.78,33941,23.5,74284.3,7.15,6.11,6.11,0,*72
1498000099.02,33942,23.5,74286.5,7.15,6.03,6.13,0,*70
1498000100.25,33943,23.5,74284.8,7.17,6.13,6.17,0,*76
1498000101.46,33944,23.5,74286.5,7.15,6.03,6.11,0,*74
1498000102.69,33945,23.5,74286.3,7.17,6.13,6.13,0,*74
1498000103.89,33946,23.5,74290.0,7.17,6.13,6.07,0,*72
1498000105.1,33947,23.5,74290.3,7.15,6.11,6.11,0,*74
1498000106.3,33948,23.5,74290.0,7.17,6.13,6.07,0,*7C
1498000107.52,33949,23.5,74290.8,7.15,6.03,6.03,0,*7A
1498000108.73,33950,23.5,74284.8,7.15,5.99,6.03,0,*72
1498000109.93,33951,23.5,74286.0,7.17,6.13,6.07,0,*74
1498000111.15,33952,23.5,74288.0,7.15,6.03,6.11,0,*73
1498000112.37,33953,23.5,74286.8,7.15,6.03,6.03,0,*71
1498000113.54,33954,23.5,74288.8,7.17,6.07,6.07,0,*74
1498000114.71,33955,23.5,74288.3,7.17,6.07,6.07,0,*75
1498000115.92,33956,23.5,74284.3,7.15,5.99,5.99,0,*74
1498000117.14,33957,23.5,74284.0,7.15,5.99,6.03,0,*75
1498000118.35,33958,23.5,74286.3,7.15,6.03,5.99,0,*7A
1498000119.56,33959,23.5,74286.0,7.15,6.11,6.11,0,*7B
1498000120.77,33960,23.5,74280.3,7.15,6.11,6.11,0,*71
1498000121.98,33961,23.5,74280.5,7.15,6.03,6.11,0,*73
1498000123.2,33962,23.5,74280.8,7.15,6.03,6.11,0,*70
1498000124.42,33963,23.5,74280.0,7.15,6.03,6.03,0,*72
1498000125.64,33964,23.5,74274.5,7.15,6.03,5.99,0,*75
1498000126.82,33965,23.5,74276.5,7.13,5.99,5.99,0,*72
1498000128.05,33966,23.5,74276.5,7.13,5.93,5.93,0,*71
1498000129.26,33967,23.5,74272.8,7.13,5.93,5.99,0,*7A
1498000130.46,33968,23.5,74274.8,7.13,5.99,5.93,0,*75
1498000131.64,33969,23.5,74272.3,7.13,5.99,6.03,0,*7E
1498000132.83,33970,23.5,74276.5,7.13,6.03,6.03,0,*76
1498000134.06,33971,23.5,74276.0,7.15,6.11,6.13,0,*73